Find ADDCUBE

NORAD ID: 64560 Int'l Des: NNA 2025-135 Owner: NARAST Country: KR operational
LEOCIRCULARRETROGRADESSO

当前视图

正在加载3D地球...

About ADDCUBE

ADDCUBE (NORAD 64560) is a satellite launched Jun 23, 2025 by NARAST of KR. It operates in LEO, CIRCULAR, RETROGRADE, SSO orbit with a mass of 10.00 kg.

即将过境

Passes for default location (London). Set your location on the main map for personalized predictions.

高度历史

Loading altitude history...

两行轨道根数

1 64560U 25135AJ 26194.83224868 .00001911 00000-0 17628-3 0 9999
2 64560 97.7757 309.3106 0001483 126.4426 233.6932 14.95838106 57890
Epoch: Jul 13, 2026 • Age: 15 hours

当前状态

高度 592.3 km
远地点 / 近地点 N/A
速度 7.57 km/s
星下点 79.52°N, 168.51°E
发射日期 Jun 23, 2025
运行时间 1 year
类型 other

技术详情

分类 Payload
质量 10.00 kg
干质量 10.00 kg
总质量 10.00 kg
长度 0.30 m
直径 0.20 m
跨度 0.30 m
形状 Box
制造商 NARAST
平台类型 Cubesat 6U
阶段状态 In Orbit
所有者/国家 NARAST/KR

Most Searched